TimeEST,TemperatureF,Dew PointF,Humidity,Sea Level PressureIn,VisibilityMPH,Wind Direction,Wind SpeedMPH,Gust SpeedMPH,PrecipitationIn,Events,Conditions,WindDirDegrees,DateUTC
12:15 AM,48.2,37.4,66,29.93,10.0,ESE,3.5,-,N/A,,Overcast,110,2012-12-16 05:15:00
12:35 AM,46.4,37.4,71,29.92,10.0,SE,3.5,-,N/A,,Overcast,130,2012-12-16 05:35:00
12:55 AM,48.2,37.4,66,29.91,10.0,SSE,3.5,-,N/A,,Mostly Cloudy,160,2012-12-16 05:55:00
1:15 AM,48.2,37.4,66,29.91,10.0,South,4.6,-,N/A,,Mostly Cloudy,170,2012-12-16 06:15:00
1:35 AM,48.2,37.4,66,29.91,10.0,Calm,Calm,-,N/A,,Mostly Cloudy,0,2012-12-16 06:35:00
1:55 AM,48.2,37.4,66,29.91,10.0,South,4.6,-,N/A,,Scattered Clouds,190,2012-12-16 06:55:00
2:15 AM,50.0,35.6,58,29.91,10.0,South,8.1,-,N/A,,Scattered Clouds,190,2012-12-16 07:15:00
2:35 AM,51.8,35.6,54,29.91,10.0,SSW,5.8,-,N/A,,Mostly Cloudy,200,2012-12-16 07:35:00
3:15 AM,53.6,35.6,51,29.91,10.0,SSW,8.1,-,N/A,,Mostly Cloudy,200,2012-12-16 08:15:00
3:35 AM,53.6,35.6,51,29.91,10.0,SSW,12.7,16.1,N/A,,Mostly Cloudy,200,2012-12-16 08:35:00
3:55 AM,53.6,35.6,51,29.91,10.0,SSW,11.5,-,N/A,,Mostly Cloudy,200,2012-12-16 08:55:00
4:15 AM,53.6,37.4,54,29.90,10.0,South,9.2,-,N/A,,Mostly Cloudy,190,2012-12-16 09:15:00
4:35 AM,51.8,39.2,62,29.91,10.0,South,11.5,-,N/A,,Mostly Cloudy,190,2012-12-16 09:35:00
4:55 AM,51.8,39.2,62,29.90,10.0,South,10.4,-,N/A,,Partly Cloudy,190,2012-12-16 09:55:00
5:15 AM,51.8,41.0,67,29.90,10.0,South,10.4,16.1,N/A,,Scattered Clouds,190,2012-12-16 10:15:00
5:35 AM,50.0,42.8,76,29.90,10.0,South,9.2,-,N/A,,Scattered Clouds,190,2012-12-16 10:35:00
5:55 AM,50.0,42.8,76,29.89,10.0,South,10.4,-,N/A,,Partly Cloudy,190,2012-12-16 10:55:00
6:15 AM,50.0,42.8,76,29.89,10.0,SSW,6.9,-,N/A,,Clear,200,2012-12-16 11:15:00
6:35 AM,48.2,42.8,82,29.89,10.0,South,5.8,-,N/A,,Partly Cloudy,190,2012-12-16 11:35:00
6:55 AM,50.0,42.8,76,29.90,10.0,South,5.8,-,N/A,,Scattered Clouds,190,2012-12-16 11:55:00
7:15 AM,48.2,42.8,82,29.90,10.0,South,5.8,-,N/A,,Scattered Clouds,180,2012-12-16 12:15:00
7:35 AM,48.2,44.6,87,29.90,10.0,South,4.6,-,N/A,,Partly Cloudy,180,2012-12-16 12:35:00
7:55 AM,50.0,44.6,82,29.90,10.0,South,5.8,-,N/A,,Scattered Clouds,190,2012-12-16 12:55:00
8:15 AM,50.0,44.6,82,29.89,10.0,South,4.6,-,N/A,,Partly Cloudy,190,2012-12-16 13:15:00
8:35 AM,50.0,44.6,82,29.89,10.0,Calm,Calm,-,N/A,,Clear,0,2012-12-16 13:35:00
8:55 AM,51.8,44.6,76,29.89,10.0,South,4.6,-,N/A,,Partly Cloudy,190,2012-12-16 13:55:00
9:15 AM,51.8,46.4,82,29.89,10.0,South,6.9,-,N/A,,Partly Cloudy,190,2012-12-16 14:15:00
9:55 AM,53.6,46.4,77,29.88,10.0,South,5.8,-,N/A,,Partly Cloudy,190,2012-12-16 14:55:00
10:15 AM,53.6,48.2,82,29.88,10.0,South,5.8,-,N/A,,Mostly Cloudy,190,2012-12-16 15:15:00
10:35 AM,55.4,48.2,77,29.88,10.0,South,6.9,-,N/A,,Scattered Clouds,190,2012-12-16 15:35:00
10:55 AM,55.4,48.2,77,29.86,10.0,South,8.1,-,N/A,,Clear,190,2012-12-16 15:55:00
11:15 AM,57.2,48.2,72,29.86,10.0,SSW,10.4,-,N/A,,Mostly Cloudy,200,2012-12-16 16:15:00
11:35 AM,57.2,48.2,72,29.86,10.0,SSW,9.2,-,N/A,,Overcast,200,2012-12-16 16:35:00
11:55 AM,57.2,50.0,77,29.85,10.0,SSW,9.2,-,N/A,,Overcast,200,2012-12-16 16:55:00
12:15 PM,57.2,50.0,77,29.85,10.0,SSW,12.7,17.3,N/A,,Overcast,200,2012-12-16 17:15:00
12:35 PM,57.2,50.0,77,29.84,10.0,SW,9.2,-,N/A,,Overcast,220,2012-12-16 17:35:00
12:55 PM,57.2,50.0,77,29.83,10.0,SSW,9.2,19.6,N/A,,Overcast,210,2012-12-16 17:55:00
1:15 PM,57.2,50.0,77,29.82,10.0,SSW,11.5,17.3,N/A,,Overcast,200,2012-12-16 18:15:00
1:35 PM,57.2,50.0,77,29.82,10.0,SW,10.4,-,N/A,,Overcast,220,2012-12-16 18:35:00
1:55 PM,57.2,50.0,77,29.81,10.0,SW,12.7,16.1,N/A,,Overcast,220,2012-12-16 18:55:00
2:15 PM,57.2,50.0,77,29.80,10.0,SW,12.7,-,N/A,,Overcast,220,2012-12-16 19:15:00
2:35 PM,57.2,51.8,82,29.80,8.0,SW,12.7,18.4,N/A,,Overcast,220,2012-12-16 19:35:00
2:55 PM,57.2,51.8,82,29.80,10.0,SSW,9.2,17.3,N/A,,Overcast,200,2012-12-16 19:55:00
3:15 PM,57.2,51.8,82,29.78,10.0,South,11.5,16.1,N/A,,Overcast,190,2012-12-16 20:15:00
3:35 PM,57.2,51.8,82,29.78,10.0,SSW,13.8,-,N/A,,Overcast,200,2012-12-16 20:35:00
3:55 PM,57.2,51.8,82,29.79,10.0,SSW,9.2,-,N/A,,Mostly Cloudy,200,2012-12-16 20:55:00
4:15 PM,57.2,51.8,82,29.79,10.0,SSW,9.2,-,N/A,,Overcast,210,2012-12-16 21:15:00
4:35 PM,57.2,51.8,82,29.79,10.0,SW,8.1,-,N/A,,Overcast,220,2012-12-16 21:35:00
4:55 PM,57.2,51.8,82,29.78,10.0,SSW,5.8,-,N/A,,Overcast,200,2012-12-16 21:55:00
5:15 PM,57.2,51.8,82,29.78,10.0,SSW,5.8,-,N/A,,Mostly Cloudy,210,2012-12-16 22:15:00
5:35 PM,55.4,50.0,82,29.78,10.0,Calm,Calm,-,N/A,,Partly Cloudy,0,2012-12-16 22:35:00
5:55 PM,55.4,50.0,82,29.78,10.0,South,4.6,-,N/A,,Clear,180,2012-12-16 22:55:00
6:15 PM,55.4,50.0,82,29.77,10.0,South,5.8,-,N/A,,Clear,180,2012-12-16 23:15:00
6:35 PM,55.4,50.0,82,29.77,10.0,South,4.6,-,N/A,,Partly Cloudy,180,2012-12-16 23:35:00
6:55 PM,55.4,50.0,82,29.78,10.0,South,4.6,-,N/A,,Clear,190,2012-12-16 23:55:00
7:15 PM,55.4,50.0,82,29.77,10.0,South,5.8,-,N/A,,Mostly Cloudy,180,2012-12-17 00:15:00
7:35 PM,55.4,50.0,82,29.78,10.0,SSW,5.8,-,N/A,,Mostly Cloudy,200,2012-12-17 00:35:00
7:55 PM,55.4,50.0,82,29.77,10.0,South,6.9,-,N/A,,Partly Cloudy,190,2012-12-17 00:55:00
8:15 PM,55.4,50.0,82,29.78,10.0,SSW,6.9,-,N/A,,Clear,200,2012-12-17 01:15:00
8:35 PM,55.4,48.2,77,29.78,10.0,SSW,5.8,-,N/A,,Clear,200,2012-12-17 01:35:00
8:55 PM,55.4,48.2,77,29.78,10.0,Calm,Calm,-,N/A,,Partly Cloudy,0,2012-12-17 01:55:00
9:15 PM,55.4,48.2,77,29.78,10.0,South,4.6,-,N/A,,Partly Cloudy,190,2012-12-17 02:15:00
9:35 PM,55.4,48.2,77,29.78,10.0,Calm,Calm,-,N/A,,Scattered Clouds,0,2012-12-17 02:35:00
9:55 PM,55.4,48.2,77,29.79,10.0,SSW,5.8,-,N/A,,Scattered Clouds,210,2012-12-17 02:55:00
10:15 PM,55.4,48.2,77,29.80,10.0,SSW,3.5,-,N/A,,Scattered Clouds,200,2012-12-17 03:15:00
10:35 PM,55.4,46.4,72,29.80,10.0,SSW,5.8,-,N/A,,Partly Cloudy,210,2012-12-17 03:35:00
10:55 PM,55.4,46.4,72,29.80,10.0,SSW,4.6,-,N/A,,Partly Cloudy,200,2012-12-17 03:55:00
11:15 PM,55.4,46.4,72,29.78,10.0,Calm,Calm,-,N/A,,Clear,0,2012-12-17 04:15:00
11:35 PM,55.4,46.4,72,29.78,10.0,Calm,Calm,-,N/A,,Partly Cloudy,0,2012-12-17 04:35:00
11:55 PM,57.2,46.4,67,29.78,10.0,Calm,Calm,-,N/A,,Mostly Cloudy,0,2012-12-17 04:55:00